Location: Helsinki
(60.1699°N, 24.9384°E)
Time: 16:46:09
(UTC+02:00)

S-56A Canister/Altair - Pass Details

Date: 28 October 2020
Orbit: 633 x 2500 km, 38.9° (Epoch: 29 November)

Event Time Altitude Azimuth Distance (km) Brightness Sun altitude
Rises 09:11:08 0° 239° (WSW) 3,969 11.1 8.8°
Reaches altitude 10° 09:14:37 10° 221° (SW) 3,308 10.9 9.1°
Maximum altitude 09:19:55 18° 182° (S) 3,145 11.5 9.5°
Drops below altitude 10° 09:26:31 10° 145° (SE) 4,253 14.8 10.1°
Sets 09:31:57 0° 130° (SE) 5,599 13.8 10.5°
